Dewpoint
72 72 72 72 72 72 71 71 72 72 73 73 73 73 73 74 75 74 74 75 75 75 75 75 76 76 76 76 77 76 76 74 74 74 73 74 73 72 71 73 72 73
72 73 74 73 73 73 72 72 72 72 72 73 73 73 74 74 74 75 74 75 75 75 75 75 75 76 76 76 76 76 75 75 74 74 74 74 73 73 72 72 72 72
72 72 73 73 72 73 71 72 72 73 72 73 73 74 74 75 74 75 75 75 75 75 75 75 75 76 76 76 76 76 75 75 74 74 75 74 73 73 73 72 72 72
72 72 72 73 73 73 73 72 72 74 73 73 73 73 74 74 75 75 75 76 75 75 75 76 76 76 76 76 76 76 75 75 75 75 74 74 74 73 73 73 73 73
71 72 73 73 73 74 73 72 72 73 73 73 73 74 75 75 75 75 75 75 75 75 75 76 76 76 76 76 76 76 76 75 75 75 74 74 74 74 73 74 73 72
71 72 73 73 73 73 73 73 72 73 73 73 73 74 74 74 74 74 75 74 74 75 75 75 75 76 76 76 76 76 76 75 75 75 75 74 73 74 73 74 73 73
71 71 72 73 73 73 73 73 73 74 73 73 74 74 74 74 74 74 74 74 74 75 75 75 76 76 76 76 76 76 76 76 76 75 75 75 75 74 74 74 74 73
71 71 71 73 73 73 73 73 73 74 74 74 73 74 74 74 74 74 74 74 74 74 75 75 75 76 75 76 76 76 76 75 75 75 75 75 75 75 75 74 74 74
71 71 71 72 72 72 72 73 73 73 74 74 73 73 74 74 74 74 75 75 74 74 75 75 75 75 75 76 76 76 75 75 75 75 75 75 74 75 75 75 74 74
72 71 71 71 71 71 71 72 72 72 73 73 73 73 73 74 74 74 74 75 74 74 74 75 75 75 75 75 75 75 75 75 76 76 75 75 75 74 74 75 74 74
72 72 71 71 71 71 71 71 71 71 72 72 72 72 72 72 73 74 74 74 73 74 74 74 74 74 75 75 75 75 75 75 75 75 75 75 75 75 75 75 75 74
72 72 72 71 71 71 71 71 71 71 71 71 71 71 72 71 71 72 73 73 74 74 74 74 74 74 75 75 75 75 75 75 75 75 75 75 75 75 75 75 75 75
72 72 72 71 72 72 72 71 71 70 70 70 71 71 70 70 70 71 72 73 73 73 73 74 74 74 74 75 75 75 75 75 75 75 75 75 75 75 75 75 75 74
72 72 72 72 72 72 72 72 71 71 71 71 71 71 70 70 69 69 70 71 72 72 73 74 74 74 74 74 74 74 74 74 75 75 74 75 75 75 74 74 74 74
71 72 72 73 73 72 72 71 71 70 70 70 70 69 68 69 69 68 69 70 71 72 73 73 72 73 73 73 74 74 74 74 74 74 74 74 74 74 74 74 74 74
72 72 72 72 72 71 71 71 71 71 70 70 70 70 71 72 71 70 68 68 69 71 72 72 72 72 73 71 71 73 74 73 73 74 74 74 74 74 73 73 73 73
72 71 71 71 71 70 70 71 71 71 71 70 70 70 71 72 71 71 69 67 67 68 70 70 71 71 70 66 66 67 73 73 73 73 74 73 73 74 73 73 73 73
71 71 71 71 70 70 71 71 71 71 71 71 71 71 72 71 71 72 71 70 69 69 68 69 70 71 66 65 65 64 68 73 72 72 72 72 72 72 73 73 72 72
71 71 71 71 71 71 71 70 71 71 71 72 72 72 72 72 72 72 72 72 71 70 70 70 70 68 65 64 63 63 63 68 71 72 72 71 72 72 72 73 73 73
70 71 71 71 71 71 71 71 71 71 71 71 72 72 71 72 71 71 72 72 73 73 73 72 72 69 62 61 60 60 61 64 69 70 71 71 72 72 71 72 72 72
70 70 70 70 69 69 69 68 68 68 68 69 69 69 70 70 71 71 71 71 71 72 72 72 71 63 62 61 60 58 59 62 66 67 68 70 71 71 72 72 73 71
68 68 67 67 67 68 68 68 68 68 68 69 69 69 70 71 70 71 70 70 71 70 71 71 69 61 60 59 59 58 60 66 67 67 67 68 69 70 71 73 72 72
66 68 68 67 68 68 68 68 68 68 69 69 68 69 69 70 69 70 71 71 71 71 71 71 69 64 58 57 58 58 63 67 68 68 69 68 68 69 70 69 70 72
63 65 67 69 68 67 67 68 69 69 69 69 68 68 69 69 70 69 69 69 69 69 70 69 68 65 57 56 57 58 64 68 68 68 68 68 68 68 68 69 69 70
63 64 64 64 65 66 68 68 69 69 69 69 69 69 69 69 68 67 67 67 68 68 68 68 67 66 57 56 56 56 65 69 69 69 70 70 70 70 70 70 71 71
63 64 64 63 64 64 65 66 67 67 67 67 67 67 67 67 67 66 65 66 67 67 66 67 68 66 61 55 54 55 58 68 68 68 68 69 69 71 70 71 71 71